This demonstration page uses our WeatherBlox Daily Observations layout. Learn more.

Left ArrowRight Arrow

Hourly Observations for November 7, 2021

Temp ( °F °C ) Dew Point ( °F °C ) Humidity (%) Winds ( mph kmh ) Pressure ( in mb ) Visibility ( mi km ) Precip ( " mm )
12:56 am 00:56 Clear 50 10 47 8.3 89 89 S 13 20 29.93 1014 10 16 0.00 0.00
1:56 am 01:56 Clear 49 9.4 46 7.8 90 90 S 9 15 29.91 1013 10 16 0.00 0.00
1:56 am 01:56 Clear 51 10.6 46 7.8 83 83 S 12 19 29.89 1012 10 16 0.00 0.00
2:56 am 02:56 Clear 49 9.4 45 7.2 86 86 S 9 15 29.87 1012 10 16 0.00 0.00
3:56 am 03:56 Clear 50 10 45 7.2 83 83 SW 5 7 29.88 1012 10 16 0.00 0.00
4:56 am 04:56 Clear 47 8.3 44 6.7 90 90 S 10 17 29.86 1011 10 16 0.00 0.00
5:56 am 05:56 Clear 45 7.2 43 6.1 93 93 S 8 13 29.86 1011 10 16 0.00 0.00
6:56 am 06:56 Clear 43 6.1 42 5.6 97 97 S 6 9 29.87 1012 10 16 0.00 0.00
7:56 am 07:56 Sunny 44 6.7 43 6.1 96 96 SSW 8 13 29.88 1012 10 16 0.00 0.00
8:56 am 08:56 Sunny 48 8.9 45 7.2 89 89 SSW 7 11 29.88 1012 10 16 0.00 0.00
9:56 am 09:56 Sunny 52 11.1 45 7.2 77 77 SSW 9 15 29.88 1012 10 16 0.00 0.00
10:56 am 10:56 Sunny 55 12.8 46 7.8 72 72 undefined N/A 29.88 1012 10 16 0.00 0.00
11:56 am 11:56 Sunny 59 15 47 8.3 64 64 WSW 7 11 29.87 1011 10 16 0.00 0.00
12:56 pm 12:56 Sunny 65 18.3 48 8.9 54 54 Calm 29.83 1010 10 16 0.00 0.00
1:56 pm 13:56 Sunny 69 20.6 47 8.3 45 45 NW 3 6 29.83 1010 10 16 0.00 0.00
2:56 pm 14:56 Sunny 70 21.1 47 8.3 44 44 SSW 3 6 29.83 1010 9 14 0.00 0.00
3:56 pm 15:56 Sunny 70 21.1 48 8.9 46 46 SSE 5 7 29.84 1010 10 16 0.00 0.00
4:56 pm 16:56 Sunny 65 18.3 48 8.9 54 54 SSE 5 7 29.86 1011 10 16 0.00 0.00
5:56 pm 17:56 Clear 59 15 45 7.2 60 60 SSE 6 9 29.89 1012 10 16 0.00 0.00
6:56 pm 18:56 Clear 57 13.9 45 7.2 64 64 SSW 7 11 29.93 1014 10 16 0.00 0.00
7:56 pm 19:56 Clear 55 12.8 44 6.7 67 67 SW 7 11 29.93 1014 10 16 0.00 0.00
8:56 pm 20:56 Clear 52 11.1 44 6.7 75 75 SW 5 7 29.94 1014 10 16 0.00 0.00
9:56 pm 21:56 Clear 52 11.1 44 6.7 75 75 WSW 3 6 29.96 1014 10 16 0.00 0.00
10:56 pm 22:56 Clear 45 7.2 40 4.4 83 83 Calm 29.96 1015 10 16 0.00 0.00
11:56 pm 23:56 Clear 47 8.3 42 5.6 83 83 N 8 13 29.97 1015 10 16 0.00 0.00

Powered by AerisWeather